Regional Weather Roundup
Issued by NWS Huntsville, AL

Home | Current Version | Previous Version | Text Only | Print | Product List | Glossary On
Versions: 1 2 3 4 5 6 7 8 9 10 11 12 13 14 15 16 17 18 19 20 21 22 23 24 25 26 27 28 29 30 31 32 33 34 35 36 37 38 39 40 41 42 43 44 45 46 47 48 49 50
000
ASUS44 KHUN 180910
RWRHUN

WEATHER ROUNDUP FOR THE TENNESSEE VALLEY
NATIONAL WEATHER SERVICE HUNTSVILLE AL
400 AM CDT THU SEP 18 2014

ALZ001>004-181000-
NORTHWEST ALABAMA

CITY           SKY/WX    TMP DP  RH WIND       PRES   REMARKS
COURTLAND HCN    N/A     61 N/A N/A CALM        N/A
RUSSELLVILLE     N/A     59 N/A N/A MISG        N/A
SHOALS AIRPORT CLOUDY    64  60  87 CALM      29.96F
SHOALS TVA RES   N/A     64 N/A N/A MISG        N/A
$$

ALZ005>007-016-181000-
NORTH CENTRAL ALABAMA

CITY           SKY/WX    TMP DP  RH WIND       PRES   REMARKS
CULLMAN AG STN   N/A     63 N/A N/A CALM        N/A
DECATUR AP     LGT RAIN  64  60  87 CALM      29.97R
HUNTSVILLE AP  LGT RAIN  66  61  84 CALM      29.95F
HUN NWS/UAH      N/A     65  59  80 NE2         N/A
MERIDIANVILLE  MOCLDY    61  55  82 CALM      29.97S
VINEMONT AP    PTSUNNY   61  57  87 CALM      29.97F
$$

ALZ008>010-181000-
NORTHEAST ALABAMA

CITY           SKY/WX    TMP DP  RH WIND       PRES   REMARKS
ALBERTVILLE    MOCLDY    61  61 100 N5        29.97R
FORT PAYNE     PTCLDY    57  54  88 CALM      29.96S
SCOTTSBORO AP  MOCLDY    61  59  94 CALM      29.98R
SCOTTSBORO HCN   N/A     59 N/A N/A MISG        N/A
VALLEY HEAD      N/A     59 N/A N/A MISG        N/A
$$

TNZ076-096-097-181000-
SOUTHEASTERN MIDDLE TENNESSEE

CITY           SKY/WX    TMP DP  RH WIND       PRES   REMARKS
FAYETTEVILLE   MOCLDY    61  55  82 NE3       29.98R
TULLAHOMA      CLOUDY    57  55  94 CALM      29.99S
WINCHESTER     MOCLDY    57  55  94 CALM      29.98S
$$

...SURROUNDING SITES...

CITY           SKY/WX    TMP DP  RH WIND       PRES   REMARKS
ATLANTA        MOCLDY    65  58  78 N5        29.93F
ANNISTON       MOCLDY    63  59  87 CALM      29.95S
BIRMINGHAM     MOCLDY    63  58  83 CALM      29.96S
CHATTANOOGA    MOCLDY    63  59  87 CALM      29.97S
CORINTH          N/A     63  59  88 CALM      29.94S
DALTON         CLEAR     59  59 100 CALM      29.97R
GADSDEN        MOCLDY    61  55  82 CALM      29.95S
GOLDEN TRNGL   MOCLDY    68  61  77 CALM      29.93S
HALEYVILLE     FAIR      61  59  93 CALM      29.99R
JACKSON TN     CLOUDY    64  61  90 CALM      29.94F
LEWISBURG      MOCLDY    57  56  97 CALM      29.97S
MEMPHIS        CLOUDY    69  64  84 E6        29.92S
MURFREESBORO   FAIR      60  58  93 CALM      29.98R
NASHVILLE      MOCLDY    62  58  86 NE5       29.98S
OXFORD MS      FAIR      66  64  94 CALM      29.94S
ROME           MOCLDY    61  59  93 CALM      29.96R
SAVANNAH       PTCLDY    63  63 100 CALM      29.95S
TUPELO         MOCLDY    67  64  90 NE6       29.93S
TUSCALOOSA     MOCLDY    66  63  90 N3        29.92F
$$

...GULF COAST WEATHER...

CITY           SKY/WX    TMP DP  RH WIND       PRES   REMARKS
GULFPORT       CLEAR     74  72  93 CALM      29.88F
PASCAGOULA     MOCLDY    71  71 100 CALM      29.89F FOG
MOBILE         MOCLDY    73  72  96 CALM      29.90F
GULF SHORES    CLOUDY    73  73  99 CALM      29.89S
PENSACOLA      MOCLDY    73  73 100 NW3       29.89S
DESTIN         PTCLDY    77  71  82 N3        29.89S
PANAMA CITY    CLEAR     72  72 100 CALM      29.88F
APPALACHICOLA  CLEAR     74  70  87 CALM      29.88S
$$




USA.gov is the U.S. government's official web portal to all federal, state and local government web resources and services.